Location: Elbart
(49.6135°N, 11.9134°E)
Time: 03:12:43
(UTC+00:00)

Cosmos 1656 - Pass Details

Date: 09 April 2020
Orbit: 798 x 849 km, 71.1° (Epoch: 26 May)

Event Time Altitude Azimuth Distance (km) Brightness Sun altitude
Rises 19:40:15 0° 332° (NNW) 3,424 8.0 -16.1°
Reaches altitude 10° 19:42:46 10° 336° (NNW) 2,482 7.0 -16.4°
Maximum altitude 19:48:25 60° 57° (ENE) 961 3.8 -17.2°
Enters shadow 19:51:10 30° 126° (SE) 1,471 4.4 -17.5°
